User: anonymous   Login
Location: Oronoko Observatory
(41.9167°N, 86.3833°W)
Time: 09:25:49
(UTC-04:00)
Language:

PAYLOAD A - Orbit

View from above orbital plane
View from above orbital plane
View from above satellite
View from above satellite

Ground track
Ground track

The orbit data is extracted from the following two-line orbital elements,

1 27840U 03031A   16149.89044445 -.00000004  00000-0  11986-4 0  9991
2 27840  98.1962 158.2262 0097905 196.9169 162.8748 14.38855409678054
Epoch (UTC): 28 May 2016 21:22:14
Eccentricity: 0.0097905
inclination: 98.1962°
perigee height: 692 km
apogee height: 832 km
right ascension of ascending node: 158.2262°
argument of perigee: 196.9169°
revolutions per day: 14.38855409
mean anomaly at epoch: 162.8748°
orbit number at epoch: 67805

The dashed part of the orbit path shows where the satellite is in the earth's shadow,  

DLR